BEIDOU 21

Last updated on Wed May 15 2019 03:07:46 GMT+0000 (Coordinated Universal Time)

1 41315U 16006A 19134.24590175 .00000096 00000-0 00000+0 0 9992 2 41315 55.1277 150.1406 0004280 259.9268 102.9114 1.86232092 22347
UTC large
Height (km)
Speed (km/s)
/
Latitude / Longitude
Inclination (degrees)
Orbital Period (minutes)
Azimuth
Elevation
Range (km)
Doppler Factor

Next 0 passes for location: London (51.5072 / 0.1276)

Sorry there are no passes over London.